TimeEDT,TemperatureF,Dew PointF,Humidity,Sea Level PressureIn,VisibilityMPH,Wind Direction,Wind SpeedMPH,Gust SpeedMPH,PrecipitationIn,Events,Conditions,WindDirDegrees,DateUTC
12:15 AM,60.8,51.8,72,30.00,10.0,SW,5.8,-,N/A,,Overcast,220,2012-10-02 04:15:00
12:35 AM,60.8,51.8,72,29.99,10.0,SW,4.6,-,N/A,,Overcast,230,2012-10-02 04:35:00
12:55 AM,60.8,51.8,72,30.00,10.0,WSW,4.6,-,N/A,,Overcast,250,2012-10-02 04:55:00
1:15 AM,60.8,51.8,72,29.99,10.0,Calm,Calm,-,N/A,,Overcast,0,2012-10-02 05:15:00
1:35 AM,60.8,51.8,72,29.98,10.0,Calm,Calm,-,N/A,,Overcast,0,2012-10-02 05:35:00
1:55 AM,60.8,53.6,77,29.99,10.0,Calm,Calm,-,N/A,,Overcast,0,2012-10-02 05:55:00
2:35 AM,62.6,51.8,68,29.99,10.0,Calm,Calm,-,N/A,,Overcast,0,2012-10-02 06:35:00
2:55 AM,62.6,53.6,72,29.98,10.0,Calm,Calm,-,N/A,,Overcast,0,2012-10-02 06:55:00
3:15 AM,60.8,53.6,77,29.99,10.0,Calm,Calm,-,N/A,,Overcast,0,2012-10-02 07:15:00
3:35 AM,62.6,53.6,72,29.98,10.0,Calm,Calm,-,N/A,,Overcast,0,2012-10-02 07:35:00
3:55 AM,62.6,53.6,72,29.99,10.0,Calm,Calm,-,N/A,,Overcast,0,2012-10-02 07:55:00
4:15 AM,62.6,55.4,77,29.98,10.0,Calm,Calm,-,N/A,,Overcast,0,2012-10-02 08:15:00
4:35 AM,62.6,55.4,77,29.99,10.0,Calm,Calm,-,N/A,,Overcast,0,2012-10-02 08:35:00
4:55 AM,60.8,55.4,82,29.99,10.0,Calm,Calm,-,N/A,,Overcast,0,2012-10-02 08:55:00
5:15 AM,62.6,55.4,77,29.99,10.0,Calm,Calm,-,N/A,,Overcast,0,2012-10-02 09:15:00
5:35 AM,62.6,55.4,77,30.00,10.0,Calm,Calm,-,N/A,,Overcast,0,2012-10-02 09:35:00
5:55 AM,62.6,57.2,82,30.00,10.0,Calm,Calm,-,N/A,,Overcast,0,2012-10-02 09:55:00
6:15 AM,62.6,57.2,82,30.01,10.0,Calm,Calm,-,N/A,,Overcast,0,2012-10-02 10:15:00
6:35 AM,62.6,57.2,82,30.00,10.0,Calm,Calm,-,N/A,,Overcast,0,2012-10-02 10:35:00
6:55 AM,62.6,55.4,77,30.01,10.0,Calm,Calm,-,N/A,,Overcast,0,2012-10-02 10:55:00
7:15 AM,62.6,55.4,77,30.01,10.0,NE,3.5,-,N/A,,Overcast,50,2012-10-02 11:15:00
7:35 AM,62.6,57.2,82,30.01,10.0,Calm,Calm,-,N/A,,Overcast,0,2012-10-02 11:35:00
7:55 AM,62.6,55.4,77,30.02,10.0,ENE,3.5,-,N/A,,Overcast,60,2012-10-02 11:55:00
8:15 AM,64.4,57.2,77,30.02,10.0,East,4.6,-,N/A,,Overcast,80,2012-10-02 12:15:00
8:35 AM,64.4,57.2,77,30.02,10.0,East,5.8,-,N/A,,Overcast,100,2012-10-02 12:35:00
8:55 AM,64.4,59.0,83,30.02,10.0,East,5.8,-,N/A,,Overcast,100,2012-10-02 12:55:00
9:15 AM,66.2,60.8,83,30.01,10.0,East,6.9,-,N/A,,Overcast,90,2012-10-02 13:15:00
9:35 AM,69.8,57.2,64,30.02,10.0,ESE,6.9,-,N/A,,Overcast,110,2012-10-02 13:35:00
9:55 AM,69.8,59.0,68,30.01,10.0,East,9.2,-,N/A,,Overcast,100,2012-10-02 13:55:00
10:15 AM,69.8,59.0,68,30.01,10.0,ESE,11.5,17.3,N/A,,Mostly Cloudy,120,2012-10-02 14:15:00
10:35 AM,71.6,57.2,60,30.01,10.0,ESE,10.4,-,N/A,,Overcast,110,2012-10-02 14:35:00
10:55 AM,69.8,57.2,64,30.01,10.0,ESE,10.4,-,N/A,,Overcast,110,2012-10-02 14:55:00
11:15 AM,69.8,57.2,64,30.02,10.0,SE,11.5,17.3,N/A,,Overcast,130,2012-10-02 15:15:00
11:35 AM,69.8,59.0,68,30.01,10.0,ESE,11.5,-,N/A,,Overcast,120,2012-10-02 15:35:00
11:55 AM,69.8,59.0,68,30.00,10.0,ESE,10.4,17.3,N/A,,Overcast,110,2012-10-02 15:55:00
12:15 PM,69.8,59.0,68,30.00,10.0,ESE,9.2,-,N/A,,Overcast,110,2012-10-02 16:15:00
12:35 PM,69.8,59.0,68,30.01,10.0,ESE,8.1,-,N/A,,Overcast,120,2012-10-02 16:35:00
12:55 PM,69.8,60.8,73,30.00,10.0,ESE,6.9,-,N/A,,Overcast,110,2012-10-02 16:55:00
1:15 PM,69.8,60.8,73,30.00,10.0,ESE,9.2,-,N/A,,Overcast,110,2012-10-02 17:15:00
1:35 PM,69.8,60.8,73,29.99,10.0,East,5.8,-,N/A,,Overcast,100,2012-10-02 17:35:00
1:55 PM,69.8,60.8,73,29.98,10.0,East,9.2,-,N/A,,Overcast,100,2012-10-02 17:55:00
2:15 PM,69.8,62.6,78,29.98,10.0,ESE,9.2,-,N/A,,Overcast,120,2012-10-02 18:15:00
2:35 PM,68.0,64.4,88,29.98,10.0,ESE,5.8,-,0.01,,Overcast,110,2012-10-02 18:35:00
2:55 PM,66.2,64.4,94,29.97,5.0,East,6.9,-,0.04,,Overcast,100,2012-10-02 18:55:00
3:15 PM,66.2,64.4,94,29.96,5.0,East,8.1,-,0.06,,Overcast,100,2012-10-02 19:15:00
3:35 PM,66.2,66.2,100,29.96,5.0,ESE,8.1,-,0.06,,Overcast,110,2012-10-02 19:35:00
3:55 PM,66.2,66.2,100,29.96,3.0,East,8.1,-,0.06,,Overcast,90,2012-10-02 19:55:00
4:15 PM,68.0,66.2,94,29.96,3.0,ESE,6.9,-,0.01,,Overcast,110,2012-10-02 20:15:00
4:35 PM,68.0,66.2,94,29.95,2.0,ESE,9.2,-,0.01,,Overcast,120,2012-10-02 20:35:00
4:55 PM,69.8,68.0,94,29.95,1.8,ESE,6.9,-,0.01,,Overcast,110,2012-10-02 20:55:00
5:15 PM,69.8,68.0,94,29.95,3.0,ESE,6.9,-,N/A,,Overcast,120,2012-10-02 21:15:00
5:35 PM,69.8,68.0,94,29.95,1.0,ESE,5.8,-,N/A,,Overcast,110,2012-10-02 21:35:00
5:55 PM,69.8,68.0,94,29.95,1.0,ESE,5.8,-,N/A,,Overcast,120,2012-10-02 21:55:00
6:15 PM,69.8,68.0,94,29.95,1.2,ESE,8.1,-,N/A,,Overcast,120,2012-10-02 22:15:00
6:35 PM,69.8,69.8,100,29.95,1.0,SE,5.8,-,N/A,,Overcast,130,2012-10-02 22:35:00
6:55 PM,69.8,69.8,100,29.95,1.5,SE,5.8,-,N/A,,Overcast,130,2012-10-02 22:55:00
7:15 PM,69.8,69.8,100,29.96,5.0,East,3.5,-,0.02,,Overcast,100,2012-10-02 23:15:00
7:35 PM,69.8,69.8,100,29.96,7.0,Calm,Calm,-,0.03,,Overcast,0,2012-10-02 23:35:00
8:15 PM,69.8,69.8,100,29.96,0.5,East,4.6,-,N/A,,Overcast,80,2012-10-03 00:15:00
8:35 PM,69.8,69.8,100,29.97,0.5,Calm,Calm,-,N/A,,Overcast,0,2012-10-03 00:35:00
8:55 PM,69.8,68.0,94,29.97,0.5,ESE,3.5,-,N/A,,Overcast,110,2012-10-03 00:55:00
9:15 PM,69.8,68.0,94,29.97,0.5,Calm,Calm,-,N/A,,Overcast,0,2012-10-03 01:15:00
9:35 PM,69.8,68.0,94,29.98,0.5,Calm,Calm,-,N/A,,Overcast,0,2012-10-03 01:35:00
9:55 PM,71.6,69.8,94,29.98,0.5,SSE,3.5,-,N/A,,Overcast,160,2012-10-03 01:55:00
10:15 PM,69.8,68.0,94,29.98,0.5,Calm,Calm,-,N/A,,Overcast,0,2012-10-03 02:15:00
10:35 PM,71.6,69.8,94,29.98,0.5,Calm,Calm,-,N/A,,Overcast,0,2012-10-03 02:35:00
10:55 PM,71.6,69.8,94,29.98,0.5,Calm,Calm,-,N/A,,Overcast,0,2012-10-03 02:55:00
11:15 PM,71.6,69.8,94,29.98,0.5,Calm,Calm,-,N/A,,Overcast,0,2012-10-03 03:15:00
11:35 PM,69.8,68.0,94,29.98,0.2,Calm,Calm,-,N/A,,Overcast,0,2012-10-03 03:35:00
11:55 PM,69.8,69.8,100,29.98,0.2,North,3.5,-,N/A,,Overcast,350,2012-10-03 03:55:00